[[{"header":{"parameterUnit":"m.s-1","parameterCategory":1,"la1":30.2991,"la2":30.254,"lo1":-89.0895,"lo2":-89.0444,"dy":0.0017,"dx":0.0017,"nx":28,"ny":28,"refTime":"2025-07-06T09:00:00:Z","depth":0,"parameterNumber":2,"parameterNumberName":"U-component_of_WINDS"},"data":[0,0,0,0,0,0,0,0,0,0,0,0,0,0,0,0,0,0,0,0,0,0,0,0,0,0,0,0,0,0,0,0,0,0,0,0,0,0,0,0,0,0,0,0,0,0,0,0,0,0,0,0,0,0,0,0,0,0,4.1726,4.1727,0,4.1883,4.1885,4.1887,4.1838,4.1835,4.1831,4.1828,4.1991,4.1998,4.2006,0,0,0,0,0,0,0,0,0,0,0,0,0,4.1382,4.1389,4.1725,4.1727,4.1729,4.1883,4.1885,4.1887,4.1838,4.1834,4.183,4.1827,4.1989,4.1998,4.2007,0,0,0,0,0,0,0,0,0,0,0,0,0,4.1535,4.1391,4.1725,4.1724,4.1725,4.1882,4.1885,4.1888,4.1839,4.1834,4.1829,4.1825,4.1986,4.1997,4.2008,4.2177,0,0,4.2042,4.2047,0,0,0,0,0,0,0,0,4.1526,4.1547,4.1722,4.1724,4.1726,4.1836,4.1824,4.1985,4.1841,4.1796,4.1828,4.1822,4.1944,4.1958,4.1998,4.2184,4.2191,4.2043,4.205,4.2054,4.2058,0,0,0,0,0,0,0,4.1516,4.154,4.1788,4.1724,4.1727,4.1715,4.1731,4.1854,4.1896,4.18,4.1796,4.1816,4.1944,4.1988,4.2002,4.2194,4.2043,4.2052,4.2059,4.2064,4.2521,4.2526,0,0,0,0,0,0,4.1504,4.1532,4.1783,4.1792,4.1612,4.1725,4.1743,4.1805,4.1894,4.1903,4.182,4.1813,4.1971,4.1989,4.2008,4.2207,4.2054,4.2065,4.2071,4.2516,4.2522,4.2528,0,0,0,0,0,0,4.1497,4.1527,4.1776,4.1661,4.1692,4.1736,4.1807,4.1811,4.1855,4.191,4.1917,4.1857,4.1968,4.1992,4.2134,4.2212,4.207,4.208,4.2509,4.2518,4.2525,4.2611,0,0,0,0,0,0,4.1487,4.1524,4.1589,4.1663,4.1699,4.19,4.1812,4.1818,4.1874,4.1867,4.1947,4.1955,4.1966,4.2117,4.2145,4.2225,4.2089,4.2502,4.2513,4.2523,4.2601,4.2621,4.2638,0,0,0,0,0,4.1475,4.1608,4.1593,4.1623,4.1781,4.1905,4.1925,4.1935,4.1881,4.1946,4.198,4.1952,4.22,4.2132,4.2163,4.2248,4.2497,4.251,4.2522,4.2593,4.2617,4.2637,0,0,0,0,0,0,4.1544,4.1618,4.1602,4.1763,4.1828,4.1897,4.1979,4.1961,4.2043,4.2032,4.2041,4.2059,4.2204,4.2241,4.2164,4.2414,4.2341,4.236,4.2384,4.2407,4.2425,4.2412,4.2098,0,0,0,0,0,4.1578,4.1672,4.1732,4.1869,4.1902,4.1935,4.199,4.1991,4.2059,4.2086,4.2131,4.2198,4.2291,4.2352,4.244,4.2607,4.2621,4.268,4.2698,4.2713,4.2729,4.2815,4.2841,4.2568,4.2568,4.2568,0,0,4.1649,4.1701,4.1761,4.1884,4.1934,4.2031,4.1959,4.2066,4.2137,4.2103,4.2238,4.2274,4.2349,4.2503,4.2573,4.2538,4.2807,4.2729,4.274,4.2748,4.2831,4.2856,4.2879,4.2577,4.2575,4.2574,0,0,4.1827,4.1878,4.1995,4.2046,4.2123,4.2143,4.2171,4.2243,4.2264,4.24,4.2375,4.2461,4.2621,4.2674,4.2722,4.2918,4.2894,4.2947,4.3042,4.3126,4.3148,4.3167,4.3233,4.3257,4.2963,4.2963,4.2963,0,4.1906,4.2051,4.2058,4.2165,4.2219,4.2191,4.2309,4.2359,4.2461,4.2498,4.2458,4.2655,4.2705,4.2868,4.2915,4.2957,4.2987,4.2937,4.3144,4.3163,4.3181,4.3244,4.327,4.2969,4.2968,4.2967,4.2967,0,4.2142,4.2243,4.2329,4.2425,4.2489,4.2602,4.2624,4.2688,4.2684,4.2708,4.2845,4.2903,4.3,4.304,4.3038,4.3203,4.3178,4.3142,4.3067,4.3213,4.3272,4.3296,4.2977,4.2975,4.2973,4.2972,0,0,4.2368,4.2465,4.2496,4.2538,4.262,4.2697,4.2808,4.2902,4.2955,4.3026,4.3117,4.3252,4.3216,4.3271,4.3275,4.3349,4.3495,4.3302,4.3304,4.3333,4.3677,4.3701,4.373,4.3481,4.3486,4.349,4.3669,0,4.2551,4.2743,4.2751,4.2926,4.3018,4.2992,4.3087,4.3147,4.3173,4.3253,4.3282,4.3376,4.3325,4.3356,4.343,4.3462,4.3564,4.345,4.3564,4.3568,4.3542,4.3761,4.3789,4.3955,4.3693,4.3697,4.37,0,4.2789,4.2865,4.3048,4.3113,4.3151,4.3237,4.3322,4.3401,4.3467,4.348,4.354,4.3532,4.3643,4.3567,4.3719,4.3641,4.3688,4.3711,4.3718,4.3726,4.364,4.3772,4.4009,4.4033,4.3737,4.3734,4.3731,0,4.2931,4.3079,4.3207,4.3244,4.3324,4.3384,4.342,4.3482,4.3537,4.3611,4.3646,4.3734,4.3781,4.3849,4.3864,4.3808,4.4015,4.3941,4.4027,4.4026,4.4069,4.4066,4.4314,4.4106,4.4105,4.4105,4.4104,0,4.3131,4.3244,4.3271,4.3349,4.3474,4.3482,4.3605,4.3637,4.3691,4.3774,4.3759,4.3837,4.3854,4.3935,4.3948,4.407,4.4093,4.4105,4.4106,4.4104,4.4102,4.4133,4.4121,4.4112,4.411,4.4109,4.4108,0,4.331,4.3333,4.347,4.3533,4.3552,4.364,4.3694,4.3769,4.3792,4.3897,4.3922,4.3959,4.4053,4.4075,4.419,4.4198,4.4341,4.4333,4.4317,4.4316,4.4399,4.4389,4.4672,4.4708,4.448,4.4482,4.4484,0,4.3435,4.352,4.3592,4.3646,4.3684,4.3772,4.3827,4.3838,4.3896,4.3976,4.404,4.4133,4.4208,4.436,4.4397,4.4483,4.4474,4.4568,4.4487,4.4481,4.4471,4.4465,4.4471,4.4582,4.4585,4.4587,4.4588,0,4.3653,4.3659,4.3739,4.3822,4.3888,4.3954,4.4017,4.4063,4.4082,4.4148,4.4244,4.4301,4.4416,4.4507,4.4593,4.4629,4.4612,4.4613,4.4637,4.4635,4.462,4.4625,4.4355,4.4606,4.4605,4.4603,4.4602,4.4602,4.3807,4.3879,4.394,4.4028,4.4076,4.4135,4.4207,4.4238,4.4317,4.441,4.4412,4.4516,4.4578,4.469,4.4732,4.4813,4.4784,4.4819,4.4828,4.4835,4.4841,4.461,4.4829,4.4829,4.4828,4.4828,4.4827,0,4.402,4.4057,4.4139,4.4226,4.4295,4.4272,4.434,4.4398,4.4489,4.4548,4.4621,4.4729,4.4817,4.4859,4.4946,4.5002,4.4996,4.5024,4.5018,4.5026,4.4864,4.4832,4.5027,4.5027,4.5027,4.5027,4.5027,4.5027,4.414,4.426,4.4273,4.4417,4.4454,4.4554,4.4594,4.4647,4.4693,4.4815,4.4887,4.4914,4.4965,4.5055,4.5133,4.5143,4.5174,4.5206,4.5212,4.5059,4.5038,4.5019,4.4989,4.5214,4.5214,4.5367,4.5369,4.537]},{"header":{"parameterUnit":"m.s-1","parameterCategory":1,"la1":30.2991,"la2":30.254,"lo1":-89.0895,"lo2":-89.0444,"dy":0.0017,"dx":0.0017,"nx":28,"ny":28,"refTime":"2025-07-06T09:00:00:Z","depth":0,"parameterNumber":3,"parameterNumberName":"V-component_of_WINDS"},"data":[0,0,0,0,0,0,0,0,0,0,0,0,0,0,0,0,0,0,0,0,0,0,0,0,0,0,0,0,0,0,0,0,0,0,0,0,0,0,0,0,0,0,0,0,0,0,0,0,0,0,0,0,0,0,0,0,0,0,1.3919,1.3919,0,1.3913,1.3913,1.3913,1.3873,1.3872,1.3871,1.387,1.3865,1.3866,1.3867,0,0,0,0,0,0,0,0,0,0,0,0,0,1.3893,1.3894,1.3919,1.3919,1.3918,1.3913,1.3913,1.3913,1.3873,1.3872,1.3871,1.387,1.3865,1.3866,1.3867,0,0,0,0,0,0,0,0,0,0,0,0,0,1.3898,1.3894,1.3919,1.3898,1.3896,1.3913,1.3913,1.3913,1.3874,1.3872,1.3871,1.3869,1.3864,1.3866,1.3867,1.3903,0,0,1.387,1.3871,0,0,0,0,0,0,0,0,1.3898,1.3899,1.3901,1.39,1.3897,1.3892,1.3902,1.391,1.3874,1.3882,1.387,1.3869,1.3875,1.3875,1.3878,1.3903,1.3903,1.387,1.3871,1.3872,1.3872,0,0,0,0,0,0,0,1.3897,1.3899,1.3916,1.3901,1.3899,1.3889,1.3888,1.3903,1.3887,1.3881,1.3879,1.3878,1.3874,1.3877,1.3877,1.3903,1.387,1.3871,1.3872,1.3872,1.3955,1.3957,0,0,0,0,0,0,1.39,1.3899,1.3917,1.3916,1.3894,1.389,1.3889,1.3896,1.3887,1.3884,1.388,1.3877,1.3875,1.3876,1.3877,1.3918,1.3872,1.3873,1.3873,1.3954,1.3955,1.3957,0,0,0,0,0,0,1.39,1.3902,1.3917,1.3907,1.3908,1.3892,1.39,1.3896,1.3899,1.3885,1.3882,1.3886,1.3874,1.3875,1.3896,1.3917,1.3873,1.3874,1.3952,1.3954,1.3956,1.4,0,0,0,0,0,0,1.3899,1.3902,1.3916,1.3907,1.3909,1.3937,1.3901,1.3897,1.3901,1.3897,1.389,1.3888,1.3873,1.3895,1.3898,1.3918,1.3875,1.395,1.3953,1.3956,1.3997,1.4004,1.401,0,0,0,0,0,1.3898,1.3929,1.3917,1.392,1.3926,1.3938,1.3939,1.3922,1.3903,1.3916,1.3907,1.3888,1.3914,1.3897,1.39,1.3921,1.3949,1.3952,1.3955,1.3994,1.4002,1.401,0,0,0,0,0,0,1.3942,1.3928,1.3914,1.3943,1.3942,1.3932,1.3948,1.3931,1.3936,1.3932,1.391,1.3909,1.3933,1.3929,1.3911,1.3955,1.3928,1.3932,1.3956,1.3964,1.3971,1.3971,1.3876,0,0,0,0,0,1.3955,1.3966,1.3953,1.398,1.398,1.3964,1.3969,1.3956,1.3954,1.3953,1.3946,1.3945,1.3952,1.3958,1.3965,1.3996,1.3993,1.4011,1.4018,1.4023,1.4027,1.4041,1.4049,1.3968,1.3968,1.3968,0,0,1.3982,1.3975,1.3984,1.3989,1.3986,1.3998,1.3964,1.3979,1.3987,1.3955,1.3975,1.3969,1.3966,1.3992,1.4003,1.3989,1.4048,1.4027,1.4032,1.4033,1.4046,1.4053,1.406,1.397,1.397,1.397,0,0,1.4036,1.4033,1.4054,1.4052,1.4049,1.4038,1.4043,1.4034,1.4029,1.4048,1.4024,1.4033,1.4048,1.4046,1.4047,1.4099,1.4081,1.4102,1.4135,1.4149,1.4156,1.4161,1.4179,1.4185,1.4106,1.4106,1.4106,0,1.407,1.4087,1.4068,1.4083,1.4085,1.4056,1.4077,1.4076,1.4075,1.4077,1.4061,1.4077,1.4073,1.4098,1.411,1.4112,1.4117,1.4103,1.4156,1.4162,1.4167,1.4183,1.419,1.4108,1.4108,1.4108,1.4107,0,1.4128,1.414,1.4158,1.4156,1.416,1.4179,1.4161,1.4167,1.4153,1.4144,1.4162,1.4156,1.416,1.4165,1.4152,1.4187,1.4179,1.416,1.4133,1.4177,1.4192,1.4198,1.4112,1.4111,1.411,1.411,0,0,1.4211,1.4198,1.4204,1.4203,1.4196,1.4204,1.422,1.4224,1.4229,1.4229,1.4241,1.4253,1.4235,1.4236,1.4223,1.4235,1.4275,1.4215,1.4215,1.4226,1.4312,1.4326,1.4333,1.4263,1.4264,1.4265,1.4312,0,1.4263,1.429,1.4272,1.4301,1.4311,1.4283,1.4297,1.4294,1.4285,1.4291,1.4281,1.429,1.4266,1.4267,1.4278,1.4268,1.4292,1.4264,1.4273,1.4274,1.4275,1.4341,1.4356,1.4401,1.4318,1.4319,1.432,0,1.4327,1.4329,1.4359,1.4348,1.4352,1.4364,1.4365,1.4372,1.4368,1.436,1.4361,1.4343,1.4357,1.433,1.4348,1.433,1.4332,1.4328,1.4329,1.4329,1.4299,1.4342,1.4415,1.4421,1.4329,1.4328,1.4327,0,1.4383,1.4393,1.4412,1.4411,1.44,1.4409,1.4405,1.4398,1.4401,1.4402,1.4403,1.4405,1.4407,1.4409,1.4392,1.4374,1.4412,1.4384,1.4405,1.4406,1.4415,1.4414,1.4488,1.4417,1.4417,1.4417,1.4417,0,1.4443,1.4462,1.4437,1.4448,1.4469,1.4447,1.4468,1.446,1.4455,1.4464,1.444,1.4449,1.4426,1.4433,1.4419,1.4436,1.4437,1.4431,1.4427,1.4432,1.4433,1.4433,1.443,1.4419,1.4418,1.4418,1.4418,0,1.4509,1.4493,1.4511,1.4498,1.4495,1.4511,1.4499,1.4509,1.4498,1.4509,1.4511,1.4494,1.45,1.4483,1.4486,1.4477,1.4501,1.4492,1.4503,1.45,1.4522,1.4519,1.4598,1.4606,1.4531,1.4532,1.4532,0,1.4548,1.4562,1.455,1.4554,1.455,1.4558,1.456,1.4539,1.4542,1.4537,1.4547,1.4551,1.4553,1.4563,1.4551,1.4553,1.4544,1.4571,1.4544,1.4549,1.4543,1.4542,1.4543,1.4577,1.4578,1.4578,1.4579,0,1.4618,1.4609,1.4613,1.4613,1.4616,1.4616,1.4614,1.4619,1.4597,1.4601,1.4607,1.4608,1.4611,1.4615,1.4614,1.4609,1.459,1.4588,1.4592,1.4598,1.4603,1.46,1.4517,1.4586,1.4585,1.4585,1.4584,1.4584,1.4671,1.4681,1.4674,1.4678,1.4674,1.4673,1.4681,1.467,1.4674,1.4675,1.4662,1.467,1.4663,1.466,1.4657,1.4662,1.4649,1.4657,1.4659,1.4661,1.4664,1.4603,1.4662,1.4662,1.4662,1.4661,1.4661,0,1.4738,1.4732,1.4736,1.4734,1.4737,1.4719,1.4715,1.4719,1.4726,1.4722,1.4724,1.4729,1.4732,1.4719,1.4721,1.4727,1.4718,1.4728,1.4727,1.4726,1.4676,1.4671,1.4735,1.4735,1.4735,1.4735,1.4735,1.4735,1.4774,1.479,1.478,1.4793,1.4787,1.4794,1.4793,1.4791,1.4787,1.4794,1.4796,1.4788,1.4779,1.4779,1.4781,1.4777,1.4778,1.4791,1.4784,1.4737,1.473,1.4723,1.4718,1.4791,1.4792,1.4834,1.4834,1.4834]}]]